Back to catalog

STARLINK-5610

AliveCommunicationsVLEO
NORAD 57244·PAYLOAD·🇺🇸 United States

Launched Jul 7, 2023 from Vandenberg Space Force Base

Loading…

Next Passes (next 24 hours)

TLE

FreshSource: CelesTrak SupGP

Epoch: Sep 14, 2026, 21:51 UTC

1 57244C 23094AC  26257.91090278  .00019611  00000+0  71007-3 0  2570
2 57244  43.0040  30.7843 0002226 275.5978 118.8860 15.27578078    18

Track STARLINK-5610 in real time with AllMySat

Download on the App Store